THORAD DELTA 1 DEB, 8141

Orbit data source: Space-Track

THORAD DELTA 1 DEB, 8141 is space debris in SSO originally from a launch on Fri, 15 Nov 1974 UTC launched from the Air Force Western Test Range (AFWTR). Debris objects in space refer to the collection of defunct objects orbiting the Earth. Examples of debris include non-operational satellites, rocket bodies, and fragments generated from explosions, collisions, or faulty payload assembly.

Loading next visibility...
Identifier
8141, 1974-089K
Orbit
SSO
Country
Flag of USUS
Related business
Manufacturer
Unknown
Mission
Spacecraft
Bus & Motor
Unknown
Mass
Unknown
Launch date (UTC)
1974-11-15 (51 years ago)
Launch vehicle
Unknown
Launch site
Air Force Western Test Range (AFWTR)
Object type
Payload
Rocket body
Debris
Shape & HBR
Unknown shape, 0.3 m
Radar Cross Section
Small (<0.1 m²)

Expand to show TLE details & history
Last TLE update: 14 hours ago

TLE from 14 hours ago
0 THORAD DELTA 1 DEB
1 08141U 74089K   26048.50310978  .00000010  00000-0  39549-3 0  9999
2 08141 101.3763 229.3417 0089719 296.5037 129.8408 12.36364496312676
Epoch: 2026-02-17T12:04Z
TLE epoch observation values (Epoch: 2026-02-17T12:04:28.684Z)
Latitude
64.67528°
Longitude
-124.29163°
Altitude
1,578.834 km
Speed
7.064 km/s
True Right ascension
13h 37m 14s
True Declination
64° 33' 21"
Sunlit
Object was in daylight at epoch
Visualization orbit readout
Latitude
Unknown
Longitude
Unknown
Altitude
Unknown
Speed
Unknown
Apparent Right ascension
Unknown
Apparent Declination
Unknown
Sunlit
N/A
Visualization observer readout
Local Sidereal Time
05:10:57
Azimuth
Unknown
Elevation
Unknown
Doppler factor
Unknown
Orbital elements
Apogee altitude
1,590.453 km
Perigee altitude
1,448.738 km
Semi-major axis
7,897.732 km
Eccentricity
0.00897
Inclination
101.3763°
RAAN
229.3417°
Arg. of periapsis
296.5037°
True anomaly
130.62455°
Mean anomaly
129.8408°
Eccentric anomaly
130.23324°
Mean motion
3.09236 °/min
Orbital period
116.42 mins
BSTAR
0.00039549
Loading maneuver chart data...
Computing Atmospheric mass density...

Documentation

Showing up to 5 results
|